India Forums Logo

The Vampire Diaries

India Forums > Forum Index > The Vampire Diaries
The Vampire Diaries is a young adult vampire horror series of novels
<< | 1 | 2 | 3 | 4 | 5 | 6 | 7 | 8 | 9 | 10 | 11 | 12 | 13 | 14 | 15 | 16 | 17 | 18 | 19 | ... >>
TIDTopic SubjectStart DateLast Entry
2718869stefan slap damon1/18/2012 8:21:52 AM1/22/2012 2:39:17 PM
27342453x12- TVD- Video Update1/19/2012 7:18:19 PM1/19/2012 7:18:19 PM
2734962|Written Update-Episode 12|1/19/2012 9:06:42 PM1/25/2012 2:25:21 AM
2738119Stefan is still insecure?1/20/2012 4:29:56 AM2/6/2012 7:17:58 PM
2743613I don't trust Meredith.1/20/2012 7:04:29 PM1/30/2012 11:39:44 AM
2747662Damm It...!! How do they know ???1/22/2012 10:32:05 AM1/22/2012 8:04:31 PM
2747916|Episode 13: Extended Promo|1/22/2012 7:19:55 PM2/2/2012 11:42:29 AM
2753396Delena vm on iss pal mein hoon1/26/2012 2:21:43 PM2/13/2012 9:26:24 AM
2753527Is TVD's Joseph Morgan Dating Claire Hot?1/26/2012 7:17:05 PM1/27/2012 3:58:48 PM
2753531Julie Plec answers TVD's Fans Questions!1/26/2012 7:29:57 PM1/26/2012 7:29:57 PM
2754058hi1/27/2012 6:55:25 AM1/28/2012 8:04:48 PM
2760028damon find new love interest2/1/2012 7:16:52 AM2/11/2012 5:47:32 AM
2760604TVD Endgame Theories??!!2/1/2012 12:47:06 PM2/4/2012 8:19:45 PM
2762129Episode 13: Written Update2/2/2012 9:01:38 PM2/8/2012 10:45:10 AM
2762170The Vampire Diaries Season 3 Episode 14 PROMO2/2/2012 10:18:19 PM2/4/2012 5:37:43 PM
2762622Why did Esther come back >;(2/3/2012 7:02:59 AM2/25/2012 6:41:00 AM
2763778who is Tatia Petrova???2/4/2012 5:53:40 AM2/11/2012 6:30:59 AM
2764076Elena and Matt2/4/2012 12:01:19 PM2/4/2012 12:01:19 PM
2777604STEFAN AND ELENA 2 VM'S2/6/2012 8:58:00 AM2/16/2012 12:28:48 AM
2778451WebClip Season 3 episode 14 "Dangerous Liaisons"2/7/2012 12:45:48 AM2/7/2012 12:45:48 AM
2779417VIDEOS OF VAMPIRE DIARIES SEASON1 UPLOADS2/7/2012 11:55:21 AM2/10/2012 2:03:21 AM
2782432Embrace yourselves Delena and Stelena fans!!!2/9/2012 2:20:22 PM2/27/2012 8:52:13 PM
2782513Originals...2/9/2012 4:26:49 PM3/18/2012 2:50:00 AM
2782649S03E14 Dangerous Liasions Video Update2/9/2012 7:45:43 PM2/12/2012 6:31:26 PM
2782768Episode 14: Written Update2/9/2012 10:19:59 PM2/12/2012 10:38:33 AM
2782959hhhiii2/10/2012 1:56:07 AM2/10/2012 1:56:07 AM
2783115TVD 3X15 All My Children[HD]2/10/2012 5:04:52 AM2/11/2012 10:03:07 AM
2783378**STELENA VM ON BEETE LAMHEIN***ON REQUEST2/10/2012 8:32:07 AM2/18/2012 8:38:20 AM
2784155Dangerous Liasions epi discussion2/10/2012 7:33:30 PM2/12/2012 1:37:18 AM
2784613Introduction2/11/2012 4:38:28 AM2/11/2012 6:05:04 AM
2785814Guys Nathaniel aka Kol replied to us in Video :)2/12/2012 3:55:16 PM2/23/2012 7:17:37 AM
2787355Elena's Decision TB Article Damon or Stephan?2/13/2012 3:43:40 PM3/11/2012 11:24:28 PM
2789986Vampire Diaries2/15/2012 9:03:52 AM3/16/2012 4:52:45 PM
2790002Vampire Diaries2/15/2012 9:08:24 AM2/15/2012 9:08:24 AM
2790346Favourite couple2/15/2012 12:18:07 PM3/16/2012 4:07:12 PM
2791199STEFAN AND ELENA VM2/16/2012 7:15:38 AM3/10/2012 9:47:15 AM
2792027My Vampire Diaries Spoilers2/16/2012 6:02:14 PM2/16/2012 6:02:14 PM
27920623x15- TVD- Video Update2/16/2012 7:16:01 PM2/17/2012 2:22:31 AM
2792120Episode 15: Written Update2/16/2012 9:02:35 PM2/22/2012 11:18:54 PM
2792184Klaroline on a hiatus!2/16/2012 10:31:34 PM3/4/2012 11:30:01 PM
2792403TVD is impossible!2/17/2012 3:02:10 AM2/19/2012 4:14:26 PM
2793405TVD-Episode 16-Extended Promo2/17/2012 12:56:14 PM3/14/2012 11:30:29 PM
2793728Vampire diaries2/17/2012 9:06:40 PM2/17/2012 9:06:40 PM
2796976Contemplating on the possibility of...2/20/2012 5:30:18 PM2/24/2012 12:29:28 PM
2803392Stefan & Bella // A Love Story2/25/2012 9:40:50 AM2/28/2012 7:49:21 AM
2804652Klaus+Caroline VM ll Echo2/27/2012 12:05:04 AM3/13/2012 6:32:04 AM
2807114Stefan & Elena || Hum Hain Is Pal Yahan2/28/2012 9:17:04 AM5/15/2012 9:04:19 AM
2807195TVD newsletter! URGENT NOTICE! LAST PAGE2/28/2012 9:42:42 AM5/3/2012 10:50:14 AM
2812656stelena OR delena3/1/2012 3:02:59 AM3/1/2012 3:02:59 AM
2817923Stefan & Elena || I Knew U Catch Me3/2/2012 8:57:04 AM5/16/2012 9:54:47 AM
2850690Happy Stelena Day3/8/2012 7:50:25 AM3/8/2012 7:50:25 AM
2870952Some people never change!!!3/12/2012 12:55:01 AM5/6/2012 5:27:11 AM
2886317Damon Caroline; Fanvid3/14/2012 1:03:48 PM3/14/2012 1:03:48 PM
2888471Episode 16: Written Update3/15/2012 9:06:54 PM3/17/2012 12:34:19 AM
2888652Episode 16 Video Update3/16/2012 12:13:51 AM3/17/2012 7:44:39 PM
2890023Elena-Positive Or Negative?3/16/2012 6:59:21 PM5/6/2012 5:13:46 AM
2890188Promo 3X17 Break On Through3/16/2012 11:55:33 PM3/16/2012 11:55:33 PM
2890533Delena Kiss 4 2nd tym in S33/17/2012 6:04:45 AM4/21/2012 5:42:03 AM
2892996DEAN & ELAN/STEFAN & ELENA VM3/19/2012 9:47:36 AM5/15/2012 12:24:24 PM
2895415THE ENDGAME!!!3/20/2012 9:23:12 PM3/21/2012 7:56:53 PM
2899086Episode 17: Video Update :)3/22/2012 7:36:03 PM3/27/2012 1:12:58 AM
2899142Episode 17: Written Update :)3/22/2012 8:55:52 PM3/27/2012 1:11:50 AM
2899273What is your take on Damon and Rebekah ?3/23/2012 1:10:39 AM5/30/2012 8:17:21 AM
2899879TVD 3x18 Extended Promo "The Murder of One" [HD]3/23/2012 9:33:01 AM3/28/2012 2:37:08 PM
2902324~~Welcome to Akudi Pigudi's Birthday Bash~~ JumpIn3/25/2012 10:10:59 AM4/2/2012 11:50:26 PM
2904921Rebecca look alike3/27/2012 7:48:00 AM4/15/2012 7:40:08 AM
2907598Delena Kaise Mujhe instrumental vm plz comment3/28/2012 7:35:57 PM4/17/2012 2:43:30 AM
2909145S3 Episode 18: Video Update3/29/2012 8:01:53 PM4/8/2012 5:35:37 AM
2909171Episode 18: Written Update3/29/2012 9:03:18 PM4/8/2012 5:35:05 AM
2909575TVD 3x19 "Heart of Darkness" Promo [HD]3/30/2012 4:33:09 AM4/8/2012 6:51:25 AM
2909871hello3/30/2012 7:54:12 AM3/30/2012 8:54:59 AM
2910779Elena Admit To Stefan That She Love Damon3/30/2012 9:08:06 PM3/31/2012 8:30:39 AM
2910806Where is Katherin3/30/2012 10:14:13 PM4/8/2012 6:13:15 PM
2912465Can ny1 explain??4/1/2012 7:32:39 AM4/2/2012 7:39:38 AM
2912897Elena justified!4/1/2012 5:52:45 PM5/18/2012 8:20:37 AM
<< | 1 | 2 | 3 | 4 | 5 | 6 | 7 | 8 | 9 | 10 | 11 | 12 | 13 | 14 | 15 | 16 | 17 | 18 | 19 | ... >>